[[{"header":{"parameterUnit":"m.s-1","parameterCategory":1,"la1":30.2992,"la2":30.254,"lo1":-89.0895,"lo2":-89.0443,"dy":0.0025,"dx":0.0025,"nx":19,"ny":19,"refTime":"2026-05-11T09:00:00:Z","depth":0,"parameterNumber":2,"parameterNumberName":"U-component_of_WINDS"},"data":[0,0,0,-5.1809,-5.1815,-5.2075,-5.2075,-5.2431,-5.2434,0,0,0,0,0,0,0,0,0,0,0,-5.1747,-5.175,-5.1809,-5.1816,-5.2074,-5.2076,-5.243,-5.2434,0,0,0,0,0,0,0,0,0,0,0,-5.1746,-5.1749,-5.1753,-5.1817,-5.2074,-5.2076,-5.2429,-5.2225,0,0,0,0,0,0,0,0,0,0,-5.1969,-5.1927,-5.1748,-5.1753,-5.1818,-5.2074,-5.2076,-5.2215,-5.2238,-5.2324,0,-5.2404,0,-5.2425,-5.246,-5.2461,0,0,0,-5.1805,-5.1908,-5.1964,-5.1753,-5.1821,-5.2074,-5.1955,-5.2228,-5.2254,-5.2354,-5.2409,-5.2421,-5.2431,-5.2462,-5.2464,-5.2992,-5.2994,0,0,-5.179,-5.1802,-5.1946,-5.1982,-5.1943,-5.1946,-5.1963,-5.2243,-5.2303,-5.241,-5.2429,-5.2437,-5.2464,-5.2467,-5.2989,-5.2992,0,0,0,-5.1757,-5.1792,-5.1841,-5.1968,-5.2013,-5.1954,-5.1973,-5.2291,-5.2306,-5.2433,-5.2441,-5.2467,-5.2471,-5.2986,-5.299,-5.3146,0,0,0,-5.1747,-5.1773,-5.1836,-5.1845,-5.2008,-5.2155,-5.2015,-5.2286,-5.2317,-5.2439,-5.2467,-5.2475,-5.2982,-5.2988,-5.3135,-5.3218,0,0,0,-5.1725,-5.177,-5.1812,-5.1845,-5.1957,-5.215,-5.2181,-5.2293,-5.2323,-5.2461,-5.2476,-5.298,-5.2987,-5.3125,-5.3201,-5.3358,0,0,0,-5.1705,-5.195,-5.1815,-5.2091,-5.1955,-5.2245,-5.2179,-5.2395,-5.2532,-5.2469,-5.2983,-5.299,-5.3122,-5.3191,-5.3347,-5.349,-5.3551,0,0,-5.202,-5.1988,-5.2149,-5.2036,-5.2353,-5.2205,-5.2545,-5.266,-5.2664,-5.2882,-5.2895,-5.3139,-5.32,-5.3355,-5.3894,-5.3943,0,0,0,-5.2253,-5.2369,-5.245,-5.2581,-5.2674,-5.276,-5.2822,-5.2865,-5.3049,-5.2778,-5.3238,-5.3275,-5.3365,-5.3433,-5.3474,-5.355,-5.3022,-5.3021,-5.3021,-5.2714,-5.2704,-5.2969,-5.299,-5.3118,-5.3178,-5.328,-5.3347,-5.3302,-5.341,-5.3474,-5.3803,-5.3882,-5.3913,-5.3993,-5.3551,-5.3552,-5.3552,-5.3553,-5.3172,-5.3333,-5.3265,-5.3497,-5.3485,-5.368,-5.3748,-5.3708,-5.3887,-5.3754,-5.3833,-5.3686,-5.3967,-5.4035,-5.3564,-5.3562,-5.3561,-5.356,-5.3559,-5.3472,-5.3546,-5.3593,-5.3779,-5.3923,-5.3936,-5.4111,-5.4094,-5.408,-5.4159,-5.4222,-5.422,-5.4213,-5.4191,-5.4192,-5.4193,-5.4194,-5.4195,-5.4195,-5.3762,-5.381,-5.3959,-5.4077,-5.4157,-5.426,-5.4323,-5.4401,-5.4483,-5.4457,-5.4458,-5.4399,-5.3997,-5.3895,-5.4213,-5.421,-5.4208,-5.4206,-5.4205,-5.4226,-5.4118,-5.4348,-5.4428,-5.4564,-5.4707,-5.4683,-5.4844,-5.4907,-5.4993,-5.4918,-5.4624,-5.459,-5.4557,-5.4472,-5.4921,-5.4921,-5.4921,-5.4921,-5.4477,-5.4458,-5.4687,-5.4816,-5.494,-5.4942,-5.52,-5.525,-5.5286,-5.5323,-5.5256,-5.5143,-5.511,-5.5096,-5.5051,-5.4971,-5.5537,-5.5537,-5.5538,-5.476,-5.4752,-5.4975,-5.5007,-5.5112,-5.5201,-5.5443,-5.5593,-5.5611,-5.5562,-5.5352,-5.5326,-5.5142,-5.5084,-5.5029,-5.496,-5.4813,0,0]},{"header":{"parameterUnit":"m.s-1","parameterCategory":1,"la1":30.2992,"la2":30.254,"lo1":-89.0895,"lo2":-89.0443,"dy":0.0025,"dx":0.0025,"nx":19,"ny":19,"refTime":"2026-05-11T09:00:00:Z","depth":0,"parameterNumber":3,"parameterNumberName":"V-component_of_WINDS"},"data":[0,0,0,0.5349,0.5352,0.5516,0.5517,0.5714,0.5716,0,0,0,0,0,0,0,0,0,0,0,0.5293,0.5294,0.5348,0.5352,0.5516,0.5517,0.5714,0.5716,0,0,0,0,0,0,0,0,0,0,0,0.5292,0.5293,0.5295,0.5353,0.5516,0.5517,0.5714,0.5594,0,0,0,0,0,0,0,0,0,0,0.5437,0.5378,0.5293,0.5295,0.5354,0.5516,0.5517,0.5589,0.5602,0.5635,0,0.5662,0,0.5692,0.5729,0.5729,0,0,0,0.5358,0.5367,0.5418,0.5295,0.5355,0.5515,0.5444,0.5596,0.5611,0.5652,0.5665,0.5673,0.5695,0.573,0.5731,0.5902,0.5903,0,0,0.5349,0.5318,0.5408,0.5427,0.5401,0.5438,0.5449,0.5605,0.5618,0.5666,0.5678,0.5699,0.5731,0.5732,0.5902,0.5902,0,0,0,0.5319,0.5311,0.5359,0.5419,0.5449,0.5443,0.5455,0.5611,0.5629,0.568,0.5701,0.5732,0.5734,0.5901,0.5902,0.5898,0,0,0,0.5314,0.5294,0.5355,0.5337,0.5446,0.5532,0.5456,0.5618,0.5636,0.57,0.5732,0.5736,0.5901,0.5902,0.5897,0.5902,0,0,0,0.5285,0.5291,0.5312,0.5335,0.5405,0.553,0.5557,0.5622,0.5649,0.5729,0.5737,0.59,0.5901,0.5896,0.59,0.5938,0,0,0,0.5244,0.5306,0.5311,0.5389,0.5403,0.5526,0.5557,0.565,0.5718,0.5733,0.5901,0.5902,0.5896,0.5899,0.5937,0.5964,0.5973,0,0,0.5305,0.5312,0.536,0.537,0.5484,0.5504,0.5618,0.571,0.5746,0.5848,0.5853,0.5897,0.59,0.5938,0.6031,0.6037,0,0,0,0.5369,0.5403,0.544,0.5504,0.5575,0.5638,0.5715,0.575,0.5838,0.5792,0.5922,0.5925,0.5948,0.5963,0.5968,0.5991,0.5907,0.5907,0.5907,0.5411,0.5454,0.5536,0.5599,0.566,0.574,0.5794,0.5854,0.5879,0.5909,0.5939,0.5991,0.6007,0.6011,0.6034,0.5957,0.5957,0.5957,0.5957,0.5504,0.556,0.5592,0.5684,0.5729,0.5806,0.5886,0.5901,0.598,0.5971,0.5994,0.598,0.6017,0.6039,0.5958,0.5958,0.5957,0.5957,0.5957,0.5537,0.5571,0.5611,0.5708,0.5778,0.5839,0.5914,0.5952,0.5989,0.6011,0.6048,0.6048,0.6053,0.6026,0.6026,0.6026,0.6026,0.6027,0.6027,0.5554,0.56,0.5658,0.574,0.5786,0.5851,0.5932,0.5979,0.604,0.6062,0.6063,0.6085,0.6012,0.5993,0.603,0.6029,0.6029,0.6028,0.6028,0.5634,0.5622,0.5711,0.5757,0.5856,0.5923,0.5971,0.6063,0.6107,0.6143,0.6161,0.61,0.6111,0.6107,0.6091,0.6151,0.6151,0.6151,0.6151,0.5661,0.567,0.577,0.5842,0.5916,0.5968,0.6069,0.6132,0.6196,0.6226,0.6223,0.6206,0.62,0.6214,0.6208,0.6194,0.6278,0.6279,0.6279,0.5712,0.573,0.5808,0.587,0.5951,0.6019,0.6115,0.6195,0.6266,0.6285,0.6251,0.6245,0.6218,0.6207,0.6225,0.6214,0.6189,0,0]}]]